sat.trackr.live / text

‹ back to catalog

STARLINK-37607

NORAD 69514 · 2026-133G

PAYLOAD ACTIVE UNKNOWN

§ Identity

Operator
Country
US
Launch date
2026-06-12
Launch site
AFETR
Launch vehicle
Mass (kg)
RCS (m²)

Purposes: comms

External: N2YO · Heavens-Above · Gunter

§ Orbital elements

Epoch: 2026-09-19T11:12:05.473728Z

Period
93.85 min
Inclination
53.1572°
Eccentricity
0.0001998
Mean motion
15.34408077 rev/d
Perigee alt
461.3 km
Apogee alt
464.0 km
Semi-major
6,840.8 km
B*
6.0437e-4
RAAN
234.6682°
Arg perigee
73.5749°
Mean anomaly
286.5474°
Rev number
1,659

§ Raw data

STARLINK-376071 69514U 26133G   26262.46673002  .00020104  00000+0  60437-3 0  99952 69514  53.1572 234.6682 0001998  73.5749 286.5474 15.34408077 16599

JSON: /api/v1/satellites/69514 · /tle

For live sub-satellite position, see the globe view (requires WebGL).

§ Visibility from observer

Set your observer location to see the next 7 days of passes ≥ 10°. The values pass through the URL so the page stays shareable.

No JS? Fill the form by hand. The geolocation button needs JavaScript.